Flag for Germany Weather past 2 weeks in Landsberg am Lech, Bavaria, Germany

32 °F

Passing clouds.

Feels Like: 22 °F
Forecast: 33 / 45 °F
Wind: 15 mph from Southwest

Location: Landsberg

Current Time: Nov 28, 2015 at 5:10:54 AM

Latest Report: Nov 28, 2015 at 4:20 AM

Visibility: N/A

Pressure: 29.89 "Hg (27.75 "Hg at 593m altitude)

Humidity: 75%

Dew point: 25 °F

Location of Landsberg am LechLocation

Historic Weather in Landsberg am Lech — Graph


Landsberg am Lech temperature yesterday

Maximum temperature yesterday: 34 °F (at 2:20 PM)
Minimum temperature yesterday: 27 °F (at 5:20 AM)
Average temperature yesterday: 31 °F

Past Weeks' High & Low Weather Summary

High64 °F (Nov 16, 12:20 PM)100% (Nov 20, 2:20 PM)30.42 "Hg (Nov 20, 2:20 PM)
Low19 °F (Nov 24, 5:20 AM)43% (Nov 15, 5:20 AM)29.39 "Hg (Nov 21, 2:20 PM)
Average42 °F78%29.99 "Hg
* Reported Nov 13 4:20 AM — Nov 28 3:20 AM, Landsberg am Lech, Weather by CustomWeather, © 2015

Note: Actual official high and low records may vary slightly from our data, if they occured in-between our weather recording intervals... More about our weather records


Landsberg am Lech weather history for previous 24 hours

Time TempWeatherWind HumidityBarometerVisibility
3:20 AM
Sat, Nov 28
32 °FPassing clouds.10 mph75%29.89 "HgN/A
2:20 AM30 °FPassing clouds.6 mph86%29.89 "HgN/A
1:20 AM30 °FPassing clouds.6 mph80%29.92 "HgN/A
12:20 AM30 °FPassing clouds.5 mph86%29.92 "HgN/A
11:20 PM
Fri, Nov 27
32 °FPassing clouds.6 mph80%29.92 "HgN/A
10:20 PM32 °FPassing clouds.6 mph80%29.92 "HgN/A
9:20 PM32 °FPassing clouds.6 mph80%29.92 "HgN/A
8:20 PM32 °FPassing clouds.7 mph80%29.95 "Hg5 mi
7:20 PM32 °FPassing clouds.2 mph93%29.95 "Hg5 mi
6:20 PM32 °FPartly cloudy.2 mph93%29.98 "Hg5 mi
5:20 PM32 °FIce fog.2 mph93%29.98 "Hg3 mi
4:20 PM32 °FPartly sunny.7 mph93%29.98 "Hg4 mi
3:20 PM32 °FPartly sunny.5 mph93%29.98 "Hg6 mi
2:20 PM34 °FPartly sunny.5 mph87%29.98 "HgN/A
1:20 PM32 °FPartly sunny.5 mph87%30.01 "HgN/A
12:20 PM32 °FPartly sunny.7 mph93%30.04 "Hg5 mi
11:20 AM30 °FIce fog.7 mph100%30.04 "Hg2 mi
10:20 AM30 °FIce fog.5 mph100%30.07 "Hg1 mi
9:20 AM30 °FIce fog.1 mph100%30.07 "Hg0 mi
8:20 AM28 °FIce fog.3 mph100%30.07 "Hg1 mi
8:00 AM28 °FIce fog.2 mph100%30.07 "Hg1 mi
7:20 AM28 °FIce fog.No wind100%30.07 "Hg1 mi
6:20 AM28 °FIce fog.2 mph100%30.07 "Hg0 mi
5:20 AM27 °FIce fog.5 mph100%30.07 "Hg0 mi
Weather by CustomWeather, © 2015

See weather overviewHow to use our weather pages